Lid_Strength_Index
2 2 2 2 2 3 7 13 17 11 10 16 17 17 15 12 12 11 13 13 14 15 14 16 16 15 13 10 11 14 13 17 15 13 11 9 10 12 15 16 17 17 15 15
-0 -1 -0 0 0 1 6 10 12 7 9 15 16 14 12 11 13 12 13 14 13 13 15 17 14 13 10 11 12 13 12 17 19 17 15 13 13 12 11 12 16 15 17 16
-1 -1 -1 -1 -0 -0 5 8 11 9 9 8 11 13 13 13 10 10 11 12 12 13 15 14 15 14 11 11 12 9 13 17 17 18 17 14 15 13 12 13 15 14 14 15
-2 -2 -2 -1 -1 -0 3 6 10 9 11 10 10 10 10 11 11 8 9 12 12 13 16 14 15 14 14 12 10 13 15 18 17 15 14 13 13 12 11 14 13 14 13 14
-2 -2 -2 -1 -1 -1 4 7 8 6 8 7 10 9 10 10 10 10 10 11 10 11 14 13 15 15 16 16 13 15 15 17 16 16 13 13 13 12 12 12 11 13 13 14
-2 -2 -2 -2 -1 0 4 3 3 6 8 8 10 11 10 10 8 8 8 8 9 11 10 9 9 12 14 14 15 16 17 17 18 19 15 14 15 13 12 11 11 11 13 13
-1 -1 -2 -2 -1 -0 2 3 3 7 10 9 9 8 8 9 8 9 8 8 9 7 6 7 8 10 12 13 14 13 16 17 17 19 17 19 13 10 9 11 11 11 11 11
-1 -1 -1 -1 -2 -1 3 3 4 6 10 8 8 8 8 8 8 9 9 8 6 6 8 11 13 12 13 12 13 14 13 14 17 19 18 15 12 11 11 12 12 10 10 9
-0 -1 -1 -1 -1 -1 3 4 2 4 8 9 6 9 8 9 10 9 8 6 6 7 10 12 16 17 15 14 12 11 13 13 14 17 19 18 13 9 7 8 13 9 9 9
-0 -0 -1 -1 -1 -1 3 4 2 3 8 6 6 8 9 6 8 10 9 8 8 8 11 14 15 15 12 15 15 14 13 13 16 16 16 15 10 9 8 13 12 8 7 8
-0 -0 -1 -1 -1 -1 2 3 3 4 6 6 5 5 6 7 7 10 9 9 8 10 12 13 13 14 13 14 12 14 15 15 16 15 16 18 9 9 14 11 8 8 7 7
1 1 0 -0 -0 -0 0 4 2 1 4 5 4 3 3 4 4 7 8 9 9 8 11 11 11 13 12 14 16 10 14 13 14 12 13 10 9 8 7 7 8 8 7 7
1 1 1 0 0 0 1 4 4 5 6 6 6 7 4 3 3 3 7 7 6 8 5 8 10 13 11 14 14 12 10 9 12 12 10 9 8 7 7 7 7 7 6 7
1 1 1 1 1 1 1 4 4 4 6 10 9 5 7 4 4 4 4 6 7 5 6 9 10 12 9 12 11 12 10 10 11 11 10 8 8 7 8 7 7 7 7 7
2 1 1 1 1 1 2 3 4 4 8 10 9 6 6 6 6 6 6 7 8 8 9 9 11 9 9 10 10 12 9 11 12 13 9 9 9 7 7 8 9 9 8 8
2 2 2 2 2 2 6 9 6 4 5 9 12 9 8 7 6 5 7 7 8 8 9 11 9 7 10 14 14 9 8 7 7 9 7 7 6 6 6 8 7 7 7 7
2 2 2 2 2 4 8 9 6 4 5 9 12 11 7 5 6 6 8 8 9 9 9 10 10 10 9 13 15 9 8 7 7 6 6 8 7 7 6 6 6 7 6 6
2 2 2 3 3 4 6 5 4 5 7 9 13 12 10 6 9 8 6 7 7 8 9 8 10 10 10 13 9 8 7 7 7 6 6 6 6 5 5 5 5 6 6 7
2 2 3 5 6 8 7 3 4 5 8 13 13 14 13 7 8 7 7 7 11 8 10 10 10 11 13 10 9 8 7 8 7 6 6 6 6 6 6 6 6 6 6 5
2 5 7 9 7 3 4 7 9 10 10 10 15 13 14 9 8 9 8 8 10 14 12 9 11 12 9 7 7 7 7 6 6 8 8 7 7 6 6 6 5 5 6 6
6 8 9 8 4 5 7 10 11 11 15 15 13 13 13 8 11 10 8 11 12 15 11 12 14 14 9 7 7 6 5 5 5 5 5 5 5 6 6 6 5 5 5 5
6 5 5 7 7 9 11 12 11 12 13 9 11 9 10 8 7 9 9 12 11 14 9 13 15 12 8 7 7 6 5 5 5 5 5 5 5 5 5 5 5 4 4 4
6 7 7 9 9 12 13 14 12 11 9 8 8 9 8 7 7 9 10 12 13 9 14 16 12 8 7 7 6 6 5 5 5 5 4 4 4 4 4 5 5 5 4 4
7 9 11 11 11 10 10 10 10 7 7 8 8 9 9 8 9 9 12 10 10 14 15 14 10 8 7 6 5 6 6 5 5 5 5 5 5 6 5 5 6 5 4 4
7 8 12 10 8 7 7 7 7 6 6 8 8 8 8 10 10 10 10 12 15 13 14 11 8 7 6 6 6 6 7 7 7 6 6 7 7 7 6 6 5 5 5 4
5 6 9 7 8 8 8 8 8 6 6 7 8 9 11 11 11 12 13 14 15 12 9 7 6 6 6 6 6 8 8 8 9 9 9 9 8 7 7 6 6 6 6 5
7 8 7 7 8 9 9 8 8 6 7 9 9 12 12 9 12 13 11 12 10 8 7 6 6 6 6 5 6 6 7 8 9 9 9 9 9 8 9 9 7 7 7 6